EUTELSAT 80A

Last updated on Wed Nov 03 2021 00:02:34 GMT+0000 (Coordinated Universal Time)

1 26369U 00028A 21306.59172951 -.00000189 00000-0 00000-0 0 9996 2 26369 4.4278 77.1984 0009947 216.7031 135.0700 0.98471369 78501
UTC large
Height (km)
Speed (km/s)
/
Latitude / Longitude
Inclination (degrees)
Orbital Period (minutes)
Azimuth
Elevation
Range (km)
Doppler Factor

Next 0 passes for location: London (51.5072 / 0.1276)

Sorry there are no passes over London.
EUTELSAT 80A